Regional Weather Roundup
Issued by NWS

Home | Current Version | Previous Version | Text Only | Print | Product List | Glossary Off
Versions: 1 2 3 4 5 6 7 8 9 10 11 12 13 14 15 16 17 18 19 20 21 22 23 24 25 26 27 28 29 30 31 32 33 34 35 36 37 38 39 40 41 42 43 44 45 46 47 48 49 50

000
ASUS43 KOAX 012110
RWRNE

WEATHER ROUNDUP FOR NEBRASKA
NATIONAL WEATHER SERVICE OMAHA NE
400 PM CDT TUE SEP 01 2015

NOTES: SATELLITE DATA IS BEING USED TO AUGMENT CLOUD COVER ABOVE
       12000 FEET.
       "FAIR" INDICATES FEW OR NO CLOUDS BELOW 12,000 FEET WITH NO
       SIGNIFICANT WEATHER AND/OR OBSTRUCTIONS TO VISIBILITY.

  * THESE STATIONS DO NOT REPORT WEATHER SUCH AS RAIN...SNOW OR FOG.

NEZ001>004-019>022-054>056-012200-
NEBRASKA PANHANDLE

CITY           SKY/WX    TMP DP  RH WIND       PRES   REMARKS
SCOTTSBLUFF    SUNNY     93  41  16 VRB5      29.92F
ALLIANCE       SUNNY     93  39  15 SW13      29.91F
CHADRON        SUNNY     95  41  15 VRB5      29.85F HX  91
KIMBALL        MOSUNNY   87  40  19 NW10      29.99F
SIDNEY         SUNNY     94  36  13 VRB5      29.97F
$$

NEZ057>060-069>072-079>082-012200-
SOUTHWEST NEBRASKA

CITY           SKY/WX    TMP DP  RH WIND       PRES   REMARKS
NORTH PLATTE   SUNNY     91  56  30 SW8       29.89F
IMPERIAL       SUNNY     92  49  22 SW6       29.93F
LEXINGTON      MOSUNNY   90  65  43 S9        29.90S HX  92
MCCOOK         MOSUNNY   93  56  28 VRB5      29.90F HX  91
OGALLALA       SUNNY     92  52  25 SW3       29.92F
$$

NEZ005>010-023>029-035>040-094-012200-
NORTH CENTRAL NEBRASKA

CITY           SKY/WX    TMP DP  RH WIND       PRES   REMARKS
VALENTINE      SUNNY     92  55  28 S15       29.85F HX  90
AINSWORTH      SUNNY     88  60  38 S13G18    29.89F
BROKEN BOW     MOSUNNY   90  62  39 SE3       29.89F HX  90
O`NEILL        MOSUNNY   83  69  63 S5        29.88F
ORD            MOSUNNY   89  63  41 S12       29.86F HX  90
THEDFORD       SUNNY     91  58  32 S8        29.90F HX  90
$$

NEZ041-046>049-061>064-073>077-083>087-012200-
SOUTH CENTRAL NEBRASKA

CITY           SKY/WX    TMP DP  RH WIND       PRES   REMARKS
GRAND ISLAND   MOSUNNY   90  63  40 SW15G24   29.89F HX  91
AURORA         MOSUNNY   92  63  38 S16       29.89F HX  92
HASTINGS       SUNNY     91  65  41 SW8       29.89F HX  93
HEBRON         MOSUNNY   91  59  33 S15G28    29.90S HX  90
HOLDREGE       SUNNY     87  58  37 S6        29.91F
KEARNEY *      SUNNY     90  63  40 S17       29.90S HX  90
YORK           MOSUNNY   88  68  51 S13       29.89F HX  91
$$

NEZ011>018-030>034-042>045-012200-
NORTHEAST NEBRASKA

CITY           SKY/WX    TMP DP  RH WIND       PRES   REMARKS
NORFOLK        MOSUNNY   88  70  55 S16G23    29.87F HX  93
ALBION         MOSUNNY   87  65  47 S18G25    29.88F
BLAIR          PTSUNNY   85  70  60 S14       29.92F
COLUMBUS *     MOSUNNY   90  68  48 S13G18    29.87F HX  93
FREMONT        PTSUNNY   89  69  51 S8G18     29.90F HX  92
TEKAMAH        PTSUNNY   89  73  59 S12       29.89F HX  97
WAYNE          MOSUNNY   85  72  63 S13       29.88F HX  91
$$

NEZ050>053-065>068-078-088>093-012200-
SOUTHEAST NEBRASKA

CITY           SKY/WX    TMP DP  RH WIND       PRES   REMARKS
LINCOLN        PTSUNNY   90  66  45 S15G26    29.90F HX  92
OMAHA EPPLEY   PTSUNNY   88  71  57 S15       29.91F HX  94
BEATRICE       MOSUNNY   88  64  45 S13G21    29.92F
FALLS CITY     SUNNY     92  67  43 S16G22    29.94F HX  95
NEBRASKA CITY  SUNNY     90  55  30 S12       29.93F
PLATTSMOUTH    MOSUNNY   87  69  55 S8        29.92F HX  91
$$

NEZ044-045-051>053-067-012200-
OMAHA AREA

CITY           SKY/WX    TMP DP  RH WIND       PRES   REMARKS
OMAHA EPPLEY   PTSUNNY   88  71  57 S15       29.91F HX  94
BLAIR          PTSUNNY   85  70  60 S14       29.92F
FREMONT        PTSUNNY   89  69  51 S8G18     29.90F HX  92
MILLARD        PTSUNNY   89  72  55 SE10      29.91F HX  96
OFFUTT AFB     MOSUNNY   88  72  60 SE13      29.91F HX  95
PLATTSMOUTH    MOSUNNY   87  69  55 S8        29.92F HX  91
WAHOO          FAIR      88  70  55 SE14G20   29.90F HX  92
$$




USA.gov is the U.S. government's official web portal to all federal, state and local government web resources and services.